Vertical_Velocity
0 -1 -0 1 -0 -5 -1 -8 -8 3 -9 5 -5 1 4 -6 -3 -3 -8 17 6 -6 2 3 -3 -4 -5 5 2 -12 -10 -9 10 32 2 -9 -6 -12 9 -2 -1 -4 -5
4 2 2 -1 0 -0 -3 -2 -2 -7 2 -11 -5 1 2 0 1 4 -4 5 -4 1 -4 -5 4 3 -8 -5 -8 -6 10 -1 -6 1 -8 11 -2 3 -10 -5 -2 -3 22
-1 1 2 2 0 3 -4 -4 -2 -2 -9 1 -3 -6 2 0 -0 7 1 -4 -0 4 -1 2 -1 1 0 2 -2 10 -6 -8 -4 -10 -4 -5 1 2 -2 -8 -6 -7 -13
9 1 -0 -1 -0 -2 7 1 1 -6 0 -4 -5 -0 -1 -2 -2 1 -0 -0 -4 -5 -2 -0 6 0 -1 -0 2 -1 -7 -3 4 -14 1 7 7 5 -7 -3 0 -2 -10
-1 5 4 -2 -0 3 3 3 1 2 -6 -1 -2 0 -3 3 -8 -6 -2 -0 0 -7 -1 4 -5 -11 9 1 2 13 6 -1 -2 6 -12 -6 3 8 4 -2 2 0 22
6 -2 9 3 -0 -0 0 3 1 -0 3 -4 -3 -4 -1 -10 1 1 -8 7 8 6 4 -0 -8 3 -1 -4 -5 -2 5 1 -2 -7 1 14 4 4 11 8 -0 -1 -11
-3 3 2 7 2 -2 2 0 1 -1 2 2 -1 -2 -6 -5 1 3 -1 -4 -4 2 3 -4 -9 3 14 2 -6 -3 -2 -1 -2 0 -4 -8 -3 -0 -7 -5 -2 -4 -7
-1 1 1 8 9 3 1 -0 2 0 -1 -1 1 -0 -5 -6 -3 -3 2 -0 -0 -10 -1 7 -1 -9 0 23 0 6 -1 -1 -2 1 -5 -2 -4 -3 1 0 5 -1 -4
-2 -5 5 -4 -0 13 3 0 -1 -1 0 -0 -1 3 -2 -4 -2 -2 3 4 -1 -4 -3 -4 2 -5 -10 -7 2 -3 -0 -3 7 -1 -1 -1 1 2 4 1 -3 1 -4
7 -3 -21 8 3 1 2 -5 -3 -2 -3 2 2 -1 1 1 -1 -2 -1 1 0 -5 -5 -11 -10 4 9 1 1 -0 1 -6 -1 6 -1 -1 1 0 2 5 6 2 7
6 -4 -3 3 -7 7 17 3 5 4 -1 -1 1 -1 -1 -1 4 3 1 0 -8 0 -9 3 -5 3 -1 -1 2 5 -0 7 4 4 -5 -2 5 4 -0 1 4 3 9
6 6 -5 -8 2 -48 20 6 14 15 8 -1 2 0 2 -1 1 -1 2 -4 -1 -6 -4 0 -2 -8 -1 3 1 2 -2 5 2 -5 6 -0 -1 2 0 -1 -1 3 -4
4 2 -4 -5 5 16 -55 5 1 -10 12 3 -5 -1 -1 2 -0 -3 1 -0 2 -3 1 1 -4 -3 -4 -5 2 1 1 2 2 -1 4 -0 1 4 -1 -1 -2 -4 -4
4 4 -2 -0 -0 -11 10 22 4 -47 33 18 3 -2 -1 2 7 -11 -2 1 1 2 -5 -2 -2 -1 -0 -1 -4 1 -0 1 2 -3 -2 3 5 -0 -2 1 1 -2 -1
-3 -2 1 -3 -4 3 -9 -7 -1 -11 -4 50 -9 3 11 3 4 -9 -5 -2 -3 3 4 0 -1 -1 1 -2 -1 -1 0 -1 -8 -1 4 4 0 -1 3 0 2 2 -1
-1 -2 -4 2 7 2 -8 -8 3 -6 -25 14 19 15 20 2 -11 18 1 -2 -2 2 3 3 -6 -1 -2 1 -2 -4 -5 -2 -1 1 7 8 -2 -1 2 -2 -2 -1 0
-0 -9 -0 8 6 13 9 -3 -4 22 2 19 -7 -31 4 20 13 -29 22 2 2 4 -3 -0 -3 -2 -6 -5 5 -1 -4 -5 -5 4 -5 -1 -2 0 -1 -1 -3 -1 2
-7 -7 2 -3 3 5 -0 13 -4 -7 8 13 5 -3 -5 1 2 10 12 3 4 1 -0 -1 0 -8 1 -9 8 -4 -4 14 -6 -3 -1 -1 -1 2 -4 4 1 0 1
0 -3 -0 2 -19 -9 1 4 20 9 -1 5 20 6 2 1 4 3 0 4 -4 -3 -2 2 -6 8 -3 0 10 -5 -1 9 -6 -2 -0 -1 -3 -3 -3 2 3 6 4
-3 -10 -9 14 7 -5 4 -9 -9 4 -2 -2 -0 5 -8 2 1 -1 1 5 4 1 -2 -4 0 -1 4 5 -6 -14 10 2 -5 -5 1 3 3 -0 -3 -5 0 1 -7
-14 1 0 -5 -11 -8 14 -3 -10 2 -6 -5 -7 -1 -2 3 3 1 2 -0 -5 -1 -0 -4 -3 -2 4 9 -10 8 -3 3 -1 -3 2 1 3 -1 -3 1 -1 -2 -1
-2 -4 7 -6 2 12 -4 1 2 7 4 -2 -1 2 0 3 1 -5 -1 1 -4 -7 4 3 -4 -4 1 4 4 -2 -4 1 4 1 1 -0 -5 -3 3 -3 6 -2 3
7 5 8 7 -2 11 4 -1 8 -2 1 -1 0 -1 -3 -4 -2 11 3 -2 -3 -1 -7 0 4 -3 2 -7 12 -7 -2 -2 6 -1 -5 -5 -1 -3 -4 -5 -4 5 2
8 3 3 7 2 9 -4 1 2 -2 -2 -3 -3 -2 3 -8 -4 6 17 3 5 -3 1 -0 -5 4 1 9 5 -5 -3 -3 18 6 -9 3 2 14 1 7 5 -1 -0
0 5 4 4 1 0 -3 0 1 5 2 6 2 -1 1 5 -9 1 13 4 2 -3 -5 -4 -4 -0 -7 0 10 3 -2 14 6 -1 4 -13 7 -10 1 2 -8 -17 11
5 2 4 4 8 4 -1 5 2 2 -1 2 -2 -2 -2 -3 2 -6 18 -1 -4 1 -4 3 -1 -4 0 -2 1 7 5 3 2 12 -7 -6 -5 -5 -10 -6 -13 18 -3
Height
1519 1521 1524 1526 1528 1532 1537 1539 1542 1545 1545 1546 1549 1552 1554 1555 1557 1558 1560 1562 1563 1565 1564 1565 1566 1567 1566 1567 1567 1566 1566 1566 1565 1564 1564 1564 1566 1567 1568 1567 1567 1567 1567
1517 1519 1520 1522 1525 1528 1531 1535 1538 1541 1543 1545 1547 1549 1551 1552 1553 1554 1556 1559 1560 1562 1563 1564 1564 1565 1563 1564 1564 1564 1565 1565 1565 1564 1565 1565 1565 1565 1566 1565 1564 1565 1566
1514 1516 1517 1519 1521 1523 1526 1530 1532 1535 1538 1542 1544 1545 1546 1548 1549 1552 1553 1554 1557 1559 1560 1561 1561 1561 1561 1561 1560 1562 1562 1562 1563 1563 1564 1563 1563 1563 1562 1562 1562 1561 1561
1510 1511 1513 1514 1516 1519 1522 1523 1526 1529 1532 1535 1538 1540 1542 1544 1548 1549 1550 1550 1552 1554 1556 1557 1558 1558 1557 1558 1557 1557 1558 1559 1560 1561 1560 1560 1560 1560 1560 1560 1559 1557 1557
1505 1506 1507 1509 1511 1513 1516 1518 1520 1522 1525 1529 1531 1535 1537 1540 1542 1544 1546 1547 1547 1549 1550 1552 1554 1554 1555 1554 1555 1555 1555 1555 1557 1556 1555 1555 1555 1555 1556 1556 1556 1556 1556
1499 1499 1501 1502 1504 1506 1509 1512 1514 1516 1518 1521 1525 1528 1531 1534 1537 1539 1541 1543 1544 1545 1545 1547 1548 1550 1549 1550 1551 1551 1552 1551 1551 1552 1552 1551 1551 1552 1553 1553 1552 1552 1552
1492 1492 1493 1494 1495 1497 1501 1504 1507 1509 1513 1514 1516 1520 1524 1527 1531 1533 1535 1537 1538 1539 1539 1540 1543 1544 1544 1543 1544 1546 1546 1547 1547 1548 1547 1547 1546 1547 1547 1547 1547 1547 1547
1486 1486 1488 1489 1489 1489 1491 1495 1500 1503 1505 1508 1510 1512 1516 1518 1522 1525 1528 1530 1531 1532 1534 1535 1536 1538 1539 1540 1540 1541 1541 1541 1542 1542 1540 1540 1541 1542 1542 1542 1542 1542 1542
1482 1480 1480 1482 1485 1483 1482 1486 1491 1495 1498 1500 1503 1506 1507 1510 1513 1516 1520 1522 1523 1524 1527 1529 1530 1531 1532 1534 1535 1536 1537 1536 1537 1536 1535 1535 1535 1535 1535 1535 1535 1536 1535
1479 1474 1462 1471 1473 1477 1474 1477 1482 1487 1491 1495 1496 1498 1500 1502 1505 1508 1512 1515 1517 1519 1521 1521 1523 1524 1526 1527 1529 1530 1530 1530 1531 1531 1529 1528 1528 1527 1528 1529 1529 1529 1530
1473 1471 1470 1457 1463 1469 1467 1469 1473 1476 1482 1485 1489 1490 1492 1494 1496 1499 1503 1506 1509 1513 1515 1516 1517 1518 1519 1520 1521 1523 1524 1525 1525 1525 1525 1524 1523 1522 1521 1522 1524 1525 1526
1465 1463 1464 1460 1457 1452 1454 1461 1466 1471 1472 1475 1480 1483 1485 1485 1488 1490 1494 1497 1501 1505 1508 1511 1511 1511 1511 1513 1514 1516 1517 1518 1518 1519 1520 1519 1518 1518 1518 1518 1518 1519 1518
1459 1456 1452 1448 1442 1432 1449 1459 1456 1461 1468 1466 1469 1474 1476 1477 1477 1481 1485 1488 1493 1496 1500 1503 1503 1504 1506 1507 1508 1508 1510 1510 1511 1513 1513 1512 1512 1513 1514 1513 1513 1513 1513
1453 1451 1449 1446 1442 1443 1448 1446 1437 1442 1463 1463 1461 1465 1468 1470 1471 1472 1476 1480 1484 1488 1490 1493 1495 1497 1499 1501 1501 1502 1503 1504 1506 1506 1507 1507 1509 1509 1509 1511 1511 1509 1510
1447 1446 1446 1445 1442 1441 1441 1445 1446 1445 1439 1456 1452 1457 1457 1460 1462 1464 1468 1471 1474 1478 1483 1486 1487 1490 1491 1493 1495 1496 1497 1498 1500 1501 1502 1504 1505 1507 1508 1507 1509 1509 1509
1440 1440 1439 1439 1439 1439 1438 1437 1435 1438 1413 1435 1441 1445 1448 1450 1453 1458 1459 1465 1468 1473 1477 1479 1482 1484 1485 1488 1489 1490 1492 1494 1496 1497 1500 1501 1502 1503 1505 1505 1505 1506 1507
1432 1433 1432 1430 1430 1430 1431 1432 1432 1429 1434 1424 1430 1441 1445 1444 1443 1450 1455 1459 1461 1466 1470 1475 1476 1478 1480 1482 1484 1485 1486 1488 1491 1493 1494 1497 1499 1501 1501 1502 1502 1503 1504
1425 1425 1425 1424 1422 1422 1427 1428 1429 1430 1432 1430 1432 1434 1437 1437 1434 1442 1447 1453 1456 1459 1463 1468 1470 1472 1474 1476 1478 1479 1481 1483 1485 1487 1489 1492 1495 1497 1498 1499 1499 1499 1500
1416 1418 1417 1418 1416 1414 1414 1417 1419 1422 1422 1420 1417 1417 1422 1427 1431 1436 1443 1445 1446 1451 1456 1461 1463 1466 1468 1470 1472 1474 1475 1477 1479 1481 1484 1486 1489 1491 1494 1496 1497 1496 1496
1408 1410 1411 1410 1411 1409 1408 1407 1406 1407 1409 1410 1411 1414 1412 1418 1423 1425 1430 1436 1442 1446 1450 1452 1457 1460 1461 1462 1464 1467 1470 1471 1473 1476 1479 1481 1482 1484 1487 1490 1492 1492 1491
1400 1401 1401 1403 1404 1404 1403 1403 1405 1405 1403 1404 1406 1410 1411 1413 1415 1418 1423 1429 1435 1441 1444 1446 1450 1453 1455 1456 1458 1462 1465 1466 1467 1471 1474 1476 1478 1480 1482 1484 1486 1487 1488
1393 1394 1395 1395 1397 1397 1398 1399 1400 1402 1402 1402 1404 1405 1405 1406 1409 1411 1416 1421 1427 1433 1439 1440 1444 1447 1450 1451 1453 1456 1458 1461 1462 1463 1467 1470 1473 1476 1479 1480 1482 1483 1484
1387 1387 1388 1389 1390 1392 1392 1394 1396 1394 1394 1394 1395 1396 1398 1400 1403 1408 1411 1415 1420 1425 1430 1435 1438 1441 1444 1446 1448 1450 1452 1456 1457 1457 1460 1465 1469 1472 1474 1476 1478 1479 1478
1386 1383 1384 1384 1384 1386 1387 1389 1389 1388 1387 1387 1388 1390 1392 1395 1398 1403 1408 1411 1415 1419 1424 1427 1431 1435 1437 1440 1442 1445 1447 1449 1452 1451 1454 1459 1462 1466 1468 1469 1471 1473 1474
1382 1383 1381 1380 1381 1382 1383 1385 1385 1387 1388 1388 1388 1388 1389 1390 1392 1397 1402 1406 1410 1414 1417 1421 1425 1428 1430 1434 1436 1438 1441 1443 1446 1446 1448 1453 1456 1459 1461 1463 1464 1466 1467
1381 1380 1380 1379 1379 1379 1380 1383 1383 1384 1385 1387 1387 1390 1391 1391 1393 1394 1399 1403 1407 1410 1413 1415 1419 1422 1425 1428 1429 1432 1433 1436 1440 1441 1443 1447 1449 1451 1453 1455 1456 1458 1460